2024-174E

Last updated on Fri Oct 04 2024 00:02:05 GMT+0000 (Coordinated Universal Time)

1 61242U 24174E 24277.53837726 .00013692 00000+0 70809-3 0 9993 2 61242 97.4570 282.6819 0014467 251.1905 108.7758 15.16279681 1250
UTC large
Height (km)
Speed (km/s)
/
Latitude / Longitude
Inclination (degrees)
Orbital Period (minutes)
Azimuth
Elevation
Range (km)
Doppler Factor

Next 0 passes for location: London (51.5072 / 0.1276)

Sorry there are no passes over London.